Weather History for Sanford, FL

Change the Weather History Date:

Tuesday, July 2, 2013

  Actual Average Record
Temperature  
Mean Temperature 78 °F -  
Max Temperature 84 °F 91 °F 100 °F (1998)
Min Temperature 73 °F 71 °F 61 °F (1981)
Cooling Degree Days 14    
Growing Degree Days 28 (Base 50)    
Moisture  
Dew Point 73 °F    
Average Humidity 93    
Maximum Humidity 100    
Minimum Humidity 74    
Precipitation  
Precipitation 0.42 in - - ()
Sea Level Pressure  
Sea Level Pressure 30.06 in    
Wind  
Wind Speed 7 mph (SE)    
Max Wind Speed 22 mph    
Max Gust Speed 28 mph    
Visibility 9 miles    
Events Rain , Thunderstorm    
Averages and records for this station are not official NWS values.
T = Trace of Precipitation, MM = Missing Value Source: NWS Daily Summary

Daily Weather History Graph

Daily Weather History Graph

Search for Another Location

Airport:

Trip Planner

Search our weather history database for the weather conditions in past years. The results will help you decide how hot, cold, wet, or windy it might be!

Date:

Astronomy

Jul. 02, 2013 Rise Set
Actual Time 6:30 AM EDT 8:27 PM EDT
Civil Twilight 6:03 AM EDT 8:54 PM EDT
Nautical Twilight 5:31 AM EDT 9:26 PM EDT
Astronomical Twilight 4:56 AM EDT 10:01 PM EDT
Moon 2:19 AM EDT (7/2) 3:50 PM EDT (7/2)
Length of Visible Light 14h 50m
Length of Day
13h 56m
Waning Crescent, 26% of the Moon is Illuminated
Jul 2
Waning Crescent
Jul 8
New
Jul 15
First Quarter
Jul 22
Full
Jul 29
Last Quarter

Hourly Weather History & Observations

Time (EDT) Temp. Heat Index Dew Point Humidity Pressure Visibility Wind Dir Wind Speed Gust Speed Precip Events Conditions
12:53 AM 73.9 °F - 73.0 °F 97% 30.04 in 9.0 mi SE 6.9 mph - 0.00 in Rain Light Rain
1:53 AM 73.0 °F - 73.0 °F 100% 30.02 in 10.0 mi SE 5.8 mph - 0.02 in   Clear
2:53 AM 73.9 °F - 73.0 °F 97% 30.01 in 10.0 mi SE 5.8 mph - N/A   Mostly Cloudy
3:49 AM 73.4 °F - 73.4 °F 100% 30.00 in 10.0 mi SE 5.8 mph - N/A   Mostly Cloudy
3:53 AM 73.9 °F - 73.0 °F 97% 30.00 in 10.0 mi SE 5.8 mph - N/A   Mostly Cloudy
4:21 AM 73.4 °F - 71.6 °F 94% 30.01 in 10.0 mi SSE 4.6 mph - N/A   Scattered Clouds
4:53 AM 73.9 °F - 72.0 °F 93% 30.01 in 10.0 mi SE 4.6 mph - N/A   Partly Cloudy
5:53 AM 73.9 °F - 73.0 °F 97% 30.01 in 10.0 mi SE 4.6 mph - 0.00 in   Mostly Cloudy
6:53 AM 73.9 °F - 73.0 °F 97% 30.03 in 10.0 mi SE 6.9 mph - N/A   Overcast
7:34 AM 73.4 °F - 73.4 °F 100% 30.04 in 10.0 mi South 5.8 mph - N/A   Overcast
7:35 AM 73.4 °F - 73.4 °F 100% 30.04 in 10.0 mi South 5.8 mph - N/A   Overcast
7:53 AM 75.0 °F - 73.9 °F 96% 30.04 in 10.0 mi SE 4.6 mph - N/A   Overcast
8:53 AM 75.9 °F - 73.9 °F 94% 30.06 in 10.0 mi South 6.9 mph - N/A   Mostly Cloudy
10:53 AM 80.1 °F 85.4 °F 75.9 °F 87% 30.08 in 10.0 mi SSE 5.8 mph - N/A   Mostly Cloudy
11:53 AM 84.0 °F 91.9 °F 75.0 °F 74% 30.08 in 10.0 mi SSE 6.9 mph - N/A   Clear
12:30 PM 78.8 °F - 71.6 °F 78% 30.07 in 3.0 mi SSW 10.4 mph 23.0 mph 0.03 in Rain , Thunderstorm Heavy Thunderstorms and Rain
12:53 PM 80.1 °F 84.5 °F 73.9 °F 81% 30.08 in 6.0 mi South 4.6 mph - 0.06 in Rain , Thunderstorm Light Thunderstorms and Rain
1:09 PM 75.2 °F - 71.6 °F 89% 30.09 in 1.5 mi South 21.9 mph 27.6 mph 0.13 in Rain , Thunderstorm Heavy Thunderstorms and Rain
1:17 PM 73.4 °F - 71.6 °F 94% 30.09 in 3.0 mi SSE 10.4 mph - 0.19 in Rain , Thunderstorm Heavy Thunderstorms and Rain
1:25 PM 73.4 °F - 71.6 °F 94% 30.08 in 3.0 mi SE 9.2 mph - 0.21 in Rain , Thunderstorm Heavy Thunderstorms and Rain
1:53 PM 75.0 °F - 72.0 °F 90% 30.09 in 10.0 mi SE 6.9 mph - 0.22 in Rain , Thunderstorm Thunderstorms and Rain
2:21 PM 75.2 °F - 71.6 °F 89% 30.10 in 10.0 mi SSE 13.8 mph - 0.00 in Rain , Thunderstorm Thunderstorms and Rain
2:33 PM 75.2 °F - 71.6 °F 89% 30.10 in 10.0 mi SSE 13.8 mph - 0.00 in Rain , Thunderstorm Thunderstorms and Rain
2:53 PM 73.9 °F - 72.0 °F 93% 30.10 in 8.0 mi SSE 10.4 mph - 0.03 in Rain , Thunderstorm Thunderstorms and Rain
3:53 PM 73.9 °F - 73.0 °F 97% 30.08 in 10.0 mi SSE 5.8 mph - 0.08 in Rain Light Rain
4:53 PM 75.0 °F - 73.0 °F 94% 30.05 in 10.0 mi SSE 5.8 mph - 0.01 in Rain Light Rain
5:53 PM 78.1 °F - 73.0 °F 84% 30.07 in 10.0 mi SSE 5.8 mph - 0.00 in   Clear
6:53 PM 77.0 °F - 73.0 °F 88% 30.08 in 10.0 mi SE 3.5 mph - N/A   Clear
7:53 PM 77.0 °F - 73.9 °F 90% 30.11 in 10.0 mi East 4.6 mph - N/A   Clear
8:53 PM 75.0 °F - 73.9 °F 96% 30.12 in 10.0 mi ESE 5.8 mph - 0.00 in Rain Light Rain
9:53 PM 75.0 °F - 73.9 °F 96% 30.12 in 10.0 mi ESE 6.9 mph - 0.00 in   Clear
10:53 PM 73.9 °F - 73.9 °F 100% 30.11 in 10.0 mi East 5.8 mph - N/A   Clear
11:53 PM 73.9 °F - 73.0 °F 97% 30.11 in 10.0 mi East 5.8 mph - N/A   Clear